Location: Wyoming Infrared Observatory
(41.0971°N, 105.9765°W)
Time: 12:48:35
(UTC-07:00)

Amateur Radio Satellites - All Passes

Search period start: 21 January 2017 12:18
Search period end: 22 January 2017 12:18
Location: Wyoming Infrared Observatory, 41.0971°N, 105.9765°W

Satellite Date Start Highest point End Downlink Frequencies (MHz)
Time Altitude Azimuth
SPROUT 21 Jan 12:21:38 12:25:52 68° 101° (E) 12:30:06 437.525
YUBILEINY 21 Jan 12:22:03 12:27:00 17° 76° (ENE) 12:31:57 435.215
50 SAT 21 Jan 12:22:08 12:25:43 75° 102° (ESE) 12:29:14 437.505
UKube-1 21 Jan 12:26:43 12:30:38 33° 98° (E) 12:34:31 .
DX 1 21 Jan 12:29:37 12:33:51 50° 100° (E) 12:38:02 434.975-435.025
CUBEBUG 1 21 Jan 12:45:09 12:48:56 30° 291° (WNW) 12:52:42 437.445
AIST 1 21 Jan 12:45:16 12:48:04 17° 86° (E) 12:50:51
CUSAT 1 21 Jan 12:51:24 12:58:21 32° 67° (ENE) 13:04:51 437.405
AO-85 21 Jan 12:52:54 12:57:05 31° 115° (ESE) 13:01:00 145.980
Cosmos 2504 21 Jan 12:55:29 12:59:08 13° 76° (ENE) 13:02:42 435.465 / 435.565
AISAT 21 Jan 13:04:32 13:08:23 30° 291° (WNW) 13:12:11 437.250
BUGSAT 1 21 Jan 13:09:34 13:10:09 10° 270° (W) 13:10:45 437.445
SWISSCUBE 21 Jan 13:26:40 13:27:44 11° 89° (E) 13:28:47 437.505
Oscar 19 21 Jan 13:28:30 13:33:12 34° 263° (W) 13:37:56 437.125/150
VELOX 1 21 Jan 13:38:54 13:41:27 15° 297° (WNW) 13:43:59 145.980
TISAT 1 21 Jan 13:45:30 13:49:41 81° 104° (ESE) 13:53:52 437.305
Gurwin Techsat 1B 21 Jan 13:51:41 13:56:38 40° 262° (W) 14:01:38 435.225
DANDE 21 Jan 13:51:46 13:58:49 35° 71° (ENE) 14:06:14 436.750
AO-7 21 Jan 13:52:19 14:00:10 48° 63° (ENE) 14:08:04 29.400- 29.500
SPROUT 21 Jan 13:59:50 14:01:13 11° 298° (WNW) 14:02:37 437.525
UKube-1 21 Jan 14:03:09 14:06:27 22° 294° (WNW) 14:09:44 .
DX 1 21 Jan 14:07:03 14:09:36 16° 296° (WNW) 14:12:09 434.975-435.025
Cosmos 2491 21 Jan 14:09:19 14:17:33 47° 272° (W) 14:25:49 435.465 / 435.565
ITAMSAT 1 21 Jan 14:13:18 14:18:25 70° 73° (ENE) 14:23:35 435.822/435.867
YUBILEINY 21 Jan 14:13:34 14:22:23 86° 96° (E) 14:31:17 435.215
AIST 1 21 Jan 14:21:12 14:25:18 39° 282° (WNW) 14:29:25
ITUPSAT 1 21 Jan 14:25:49 14:30:20 39° 98° (E) 14:34:51 437.325
CUSAT 1 21 Jan 14:32:54 14:40:42 58° 267° (W) 14:47:48 437.405
AO-85 21 Jan 14:33:19 14:37:27 31° 310° (NW) 14:41:21 145.980
Cosmos 2504 21 Jan 14:42:32 14:51:12 75° 94° (E) 14:59:20 435.465 / 435.565
MOZHAYETS 4 21 Jan 14:45:02 14:48:28 20° 93° (E) 14:51:52
O/OREOS (USA 219) 21 Jan 14:48:47 14:52:03 19° 56° (NE) 14:55:19 437.305
BEESAT 21 Jan 14:59:27 15:04:17 89° 113° (ESE) 15:09:05 436.000
SWISSCUBE 21 Jan 15:01:14 15:06:03 79° 286° (WNW) 15:10:51 437.505
BEESAT 3 21 Jan 15:03:33 15:06:20 19° 111° (ESE) 15:09:09 437.485
BRITE-PL 21 Jan 15:10:20 15:14:51 25° 66° (ENE) 15:19:18 437.365/2234.400
KKS-1 21 Jan 15:17:09 15:18:56 12° 91° (E) 15:20:44 437.445
HORYU 2 21 Jan 15:25:23 15:27:11 12° 61° (ENE) 15:28:59 437.375
DANDE 21 Jan 15:34:05 15:41:47 57° 267° (W) 15:49:52 436.750
M-CUBED/EXP-1 PRIME 21 Jan 15:36:00 15:37:53 14° 98° (E) 15:39:44 437.505
SO-50 21 Jan 15:40:48 15:44:59 35° 50° (NE) 15:49:06 436.795
AO-7 21 Jan 15:45:18 15:52:59 40° 261° (W) 16:00:45 29.400- 29.500
BEESAT 2 21 Jan 15:50:27 15:53:46 26° 114° (ESE) 15:57:08 435.950
ITAMSAT 1 21 Jan 15:55:46 15:58:23 14° 270° (W) 16:00:59 435.822/435.867
ITUPSAT 1 21 Jan 16:04:11 16:07:55 23° 295° (WNW) 16:11:39 437.325
STARS 21 Jan 16:05:40 16:08:46 19° 94° (E) 16:11:52 437.465
AUBIESAT-1 21 Jan 16:10:36 16:13:38 32° 103° (ESE) 16:16:37 437.475
YUBILEINY 21 Jan 16:14:08 16:20:21 21° 297° (WNW) 16:26:38 435.215
Cubesat XI-IV 21 Jan 16:17:57 16:21:34 19° 62° (ENE) 16:25:11 437.490
MOZHAYETS 4 21 Jan 16:21:25 16:25:46 40° 289° (WNW) 16:30:06
NOAA 15 21 Jan 16:21:52 16:25:48 22° 63° (ENE) 16:29:46 137.62
O/OREOS (USA 219) 21 Jan 16:27:23 16:31:40 44° 253° (WSW) 16:35:57 437.305
NOAA 18 21 Jan 16:33:24 16:36:34 16° 59° (ENE) 16:39:45 137.9125
Cosmos 2504 21 Jan 16:38:47 16:45:17 23° 293° (WNW) 16:51:33 435.465 / 435.565
BEESAT 3 21 Jan 16:40:05 16:43:41 36° 309° (NW) 16:47:22 437.485
BEESAT 21 Jan 16:40:06 16:41:18 11° 301° (WNW) 16:42:30 436.000
GOMX 1 21 Jan 16:44:50 16:50:13 72° 75° (ENE) 16:55:21 467.674
BRITE-PL 21 Jan 16:47:28 16:52:57 49° 261° (W) 16:58:25 437.365/2234.400
KKS-1 21 Jan 16:51:30 16:55:52 60° 287° (WNW) 17:00:13 437.445
HORYU 2 21 Jan 16:58:47 17:03:09 68° 258° (WSW) 17:07:34 437.375
LilacSat-2 21 Jan 17:03:13 17:06:47 42° 73° (ENE) 17:10:23 437.200
M-CUBED/EXP-1 PRIME 21 Jan 17:09:36 17:12:29 27° 295° (WNW) 17:15:18 437.505
CUBESAT XI-V 21 Jan 17:10:22 17:15:05 80° 283° (WNW) 17:19:44 437.345
CUTE-I 21 Jan 17:12:18 17:17:28 57° 72° (ENE) 17:22:41 437.470
DOVE 4 21 Jan 17:17:38 17:22:33 61° 74° (ENE) 17:27:12 437.250
SO-50 21 Jan 17:21:34 17:25:16 25° 247° (WSW) 17:28:56 436.795
DANDE 21 Jan 17:22:07 17:23:05 10° 283° (WNW) 17:24:04 436.750
BEESAT 2 21 Jan 17:28:03 17:31:29 28° 311° (NW) 17:34:58 435.950
STARS 21 Jan 17:41:11 17:45:15 38° 289° (WNW) 17:49:17 437.465
AUBIESAT-1 21 Jan 17:46:04 17:47:48 14° 300° (WNW) 17:49:30 437.475
HO-68 21 Jan 17:50:48 17:57:08 35° 63° (ENE) 18:03:30 435.675
Cubesat XI-IV 21 Jan 17:55:55 18:01:09 59° 259° (WSW) 18:06:25 437.490
CUTE 1.7 + AOD 2 21 Jan 17:57:55 18:00:58 19° 67° (ENE) 18:04:02 437.475
NOAA 15 21 Jan 18:00:04 18:05:12 50° 260° (W) 18:10:23 137.62
AIST 2 21 Jan 18:01:45 18:03:45 13° 109° (ESE) 18:05:46 435.215
NOAA 18 21 Jan 18:11:04 18:16:35 76° 257° (WSW) 18:22:05 137.9125
GOMX 1 21 Jan 18:25:53 18:28:40 14° 270° (W) 18:31:23 467.674
CANX-2 21 Jan 18:26:15 18:30:19 45° 73° (ENE) 18:34:24 2200.000
SEEDS 21 Jan 18:34:42 18:38:27 32° 70° (ENE) 18:42:14 437.485
CINEMA 3 21 Jan 18:36:43 18:41:09 86° 255° (WSW) 18:45:26 145.822/145.860
COMPASS 1 21 Jan 18:37:52 18:41:11 23° 68° (ENE) 18:44:31 437.405
LilacSat-2 21 Jan 18:39:35 18:41:17 13° 269° (W) 18:43:01 437.200
AAUSAT CUBESAT 2 21 Jan 18:47:43 18:51:00 23° 68° (ENE) 18:54:18 437.432
Cosmos 2499 21 Jan 18:52:18 19:00:13 47° 90° (E) 19:07:35 435.465 / 435.565
CUTE-I 21 Jan 18:54:22 18:57:52 18° 268° (W) 19:01:24 437.470
DOVE 4 21 Jan 18:57:51 19:00:31 14° 269° (W) 19:03:07 437.250
GONETS M04 21 Jan 19:01:50 19:09:52 44° 87° (E) 19:17:58
Oscar 11 21 Jan 19:02:31 19:04:42 14° 63° (ENE) 19:06:55 145.826/435.025
CUBEBUG 2 21 Jan 19:21:59 19:26:07 67° 75° (ENE) 19:30:14 437.445
STRAND 1 21 Jan 19:29:08 19:34:18 76° 103° (ESE) 19:39:27 437.568
CUTE 1.7 + AOD 2 21 Jan 19:32:37 19:36:32 36° 263° (W) 19:40:30 437.475
AIST 2 21 Jan 19:37:40 19:41:42 57° 305° (NW) 19:45:51 435.215
HO-68 21 Jan 19:37:47 19:44:39 47° 260° (W) 19:51:33 435.675
FUNcube-1 21 Jan 19:39:07 19:42:51 34° 71° (ENE) 19:46:37 145.935
UWE-3 21 Jan 19:47:17 19:51:24 81° 76° (ENE) 19:55:34 435.000/436.395/437.385
DELFI C3 21 Jan 19:52:57 19:55:16 15° 65° (ENE) 19:57:36 145.870
ZACube-1 21 Jan 20:02:40 20:06:46 71° 75° (ENE) 20:10:55 437.345
HUMSAT D 21 Jan 20:03:40 20:04:53 11° 62° (ENE) 20:06:06 437.325/437.525
CANX-2 21 Jan 20:03:54 20:06:24 15° 269° (W) 20:08:55 2200.000
SEEDS 21 Jan 20:10:57 20:14:10 21° 266° (W) 20:17:25 437.485
COMPASS 1 21 Jan 20:12:54 20:16:35 29° 264° (W) 20:20:17 437.405
AAUSAT CUBESAT 2 21 Jan 20:22:39 20:26:18 29° 264° (W) 20:30:00 437.432
ISS 21 Jan 20:25:10 20:26:25 12° 129° (SE) 20:27:40 145.825
Oscar 11 21 Jan 20:36:07 20:40:21 56° 260° (W) 20:44:38 145.826/435.025
Cosmos 2499 21 Jan 20:45:55 20:53:25 36° 287° (WNW) 21:00:30 435.465 / 435.565
GONETS M04 21 Jan 20:58:37 21:06:41 41° 287° (WNW) 21:14:51
UNISAT 6 21 Jan 21:01:37 21:03:24 12° 91° (E) 21:05:11 437.425
STRAND 1 21 Jan 21:10:09 21:12:49 14° 300° (WNW) 21:15:29 437.568
TIGRISAT 21 Jan 21:13:42 21:16:22 15° 92° (E) 21:19:04 435.000
FUNcube-1 21 Jan 21:16:17 21:19:11 19° 267° (W) 21:22:08 145.935
ESTCUBE 1 21 Jan 21:20:01 21:21:47 12° 61° (ENE) 21:23:32 437.505/2401.250
AO-85 21 Jan 21:24:24 21:27:35 23° 47° (NE) 21:30:45 145.980
DELFI C3 21 Jan 21:25:52 21:29:42 43° 261° (W) 21:33:33 145.870
ANTELSAT 21 Jan 21:28:33 21:32:11 24° 95° (E) 21:35:51 437.575/2403.000
HUMSAT D 21 Jan 21:35:50 21:39:54 65° 259° (W) 21:44:03 437.325/437.525
RS-15 21 Jan 21:36:54 21:45:38 25° 100° (E) 21:54:35 29.354- 29.394
PRISM 21 Jan 21:43:59 21:48:05 70° 286° (WNW) 21:52:08 437.425
ISS 21 Jan 21:59:13 22:02:28 76° 327° (NNW) 22:05:43 145.825
CUBEBUG 1 21 Jan 22:05:15 22:08:29 20° 66° (ENE) 22:11:44 437.445
JAS-2 21 Jan 22:17:20 22:24:00 36° 96° (E) 22:31:00 435.910
AISAT 21 Jan 22:25:39 22:29:06 22° 67° (ENE) 22:32:32 437.250
BY70-1 21 Jan 22:34:55 22:37:48 42° 261° (W) 22:40:55 436.1900
UNISAT 6 21 Jan 22:36:04 22:40:28 63° 285° (WNW) 22:44:58 437.425
POPSAT HIP 1 21 Jan 22:37:31 22:38:51 11° 90° (E) 22:40:11 437.405
DUCHIFAT 1 21 Jan 22:45:57 22:47:39 12° 91° (E) 22:49:22 145.980
TIGRISAT 21 Jan 22:49:00 22:53:17 49° 287° (WNW) 22:57:39 435.000
NANOSAT C BR1 21 Jan 22:51:35 22:54:11 16° 92° (E) 22:56:46 145.865
ESTCUBE 1 21 Jan 22:53:26 22:57:56 73° 256° (WSW) 23:02:31 437.505/2401.250
50 SAT 21 Jan 22:56:44 22:59:50 28° 71° (ENE) 23:02:57 437.505
VELOX 1 21 Jan 22:57:59 23:02:13 45° 72° (ENE) 23:06:28 145.980
AO-85 21 Jan 23:04:33 23:08:00 30° 245° (WSW) 23:11:27 145.980
ANTELSAT 21 Jan 23:04:56 23:08:53 32° 290° (WNW) 23:12:55 437.575/2403.000
SPROUT 21 Jan 23:14:40 23:18:45 49° 73° (ENE) 23:22:52 437.525
PCSat 21 Jan 23:17:31 23:21:38 23° 107° (ESE) 23:25:46 145.827
BEESAT 3 21 Jan 23:20:15 23:22:33 15° 42° (NE) 23:24:50 437.485
UKube-1 21 Jan 23:21:05 23:24:48 29° 68° (ENE) 23:28:31 .
DX 1 21 Jan 23:24:47 23:28:54 43° 71° (ENE) 23:33:03 434.975-435.025
ISS 21 Jan 23:37:02 23:39:22 18° 343° (NNW) 23:41:43 145.825
CUBEBUG 1 21 Jan 23:40:25 23:44:31 37° 262° (W) 23:48:37 437.445
QB50P1 21 Jan 23:43:40 23:47:53 68° 102° (ESE) 23:52:05 145.935-145.965
RS-15 21 Jan 23:44:33 23:56:27 88° 301° (WNW) 00:08:53 29.354- 29.394
POLYITAN 1 21 Jan 23:48:21 23:52:36 78° 103° (ESE) 23:56:51 437.675
QB50P2 21 Jan 23:49:40 23:53:56 86° 108° (ESE) 23:58:10 145.880/145.840
AISAT 22 Jan 00:01:18 00:05:21 34° 262° (W) 00:09:25 437.250
JAS-2 22 Jan 00:02:09 00:09:01 49° 291° (WNW) 00:16:24 435.910
BEESAT 2 22 Jan 00:08:10 00:11:08 19° 45° (NE) 00:14:03 435.950
POPSAT HIP 1 22 Jan 00:10:49 00:14:59 60° 286° (WNW) 00:19:09 437.405
PHONESAT 2.4 22 Jan 00:19:04 00:19:30 10° 151° (SSE) 00:19:56 2401.200-2431.200
DUCHIFAT 1 22 Jan 00:19:33 00:23:39 55° 286° (WNW) 00:27:46 145.980
YUBILEINY 22 Jan 00:24:13 00:32:31 43° 73° (ENE) 00:40:42 435.215
NANOSAT C BR1 22 Jan 00:26:06 00:30:05 42° 288° (WNW) 00:34:04 145.865
AIST 1 22 Jan 00:27:59 00:32:06 46° 79° (ENE) 00:36:10
50 SAT 22 Jan 00:30:41 00:33:04 17° 266° (W) 00:35:28 437.505
BEESAT 22 Jan 00:31:25 00:33:11 12° 60° (ENE) 00:34:55 436.000
SWISSCUBE 22 Jan 00:32:32 00:34:55 14° 61° (ENE) 00:37:18 437.505
VELOX 1 22 Jan 00:36:04 00:38:53 16° 267° (W) 00:41:43 145.980
TISAT 1 22 Jan 00:36:37 00:40:43 57° 74° (ENE) 00:44:49 437.305
Cosmos 2504 22 Jan 00:36:44 00:42:28 24° 67° (ENE) 00:48:03 435.465 / 435.565
BUGSAT 1 22 Jan 00:47:12 00:51:15 76° 283° (WNW) 00:55:18 437.445
SPROUT 22 Jan 00:52:43 00:54:57 14° 269° (W) 00:57:10 437.525
BEESAT 3 22 Jan 00:56:36 01:00:35 66° 240° (WSW) 01:04:32 437.485
UKube-1 22 Jan 00:57:13 01:00:47 25° 264° (W) 01:04:22 .
PCSat 22 Jan 00:59:24 01:04:39 51° 304° (NW) 01:09:57 145.827
DX 1 22 Jan 01:02:25 01:05:16 17° 267° (W) 01:08:08 434.975-435.025
Cosmos 2491 22 Jan 01:13:41 01:21:43 44° 87° (E) 01:29:47 435.465 / 435.565
ISS 22 Jan 01:15:11 01:16:50 13° 4° (N) 01:18:29 145.825
QB50P1 22 Jan 01:21:47 01:23:05 11° 298° (WNW) 01:24:24 145.935-145.965
ITUPSAT 1 22 Jan 01:32:19 01:36:50 46° 71° (ENE) 01:41:24 437.325
Oscar 19 22 Jan 01:39:28 01:44:40 84° 102° (ESE) 01:49:49 437.125/150
BEESAT 2 22 Jan 01:45:15 01:49:08 46° 243° (WSW) 01:52:59 435.950
MOZHAYETS 4 22 Jan 01:47:07 01:50:22 20° 65° (ENE) 01:53:39
PHONESAT 2.4 22 Jan 01:50:54 01:53:03 44° 166° (SSE) 01:55:13 2401.200-2431.200
CUSAT 1 22 Jan 01:53:14 01:57:19 22° 81° (E) 02:02:09 437.405
AO-7 22 Jan 01:57:05 02:00:14 12° 87° (E) 02:03:23 29.400- 29.500
RS-15 22 Jan 02:00:13 02:10:51 34° 329° (NNW) 02:21:48 29.354- 29.394
BEESAT 22 Jan 02:05:30 02:10:16 81° 258° (WSW) 02:15:04 436.000
AIST 1 22 Jan 02:07:05 02:09:14 14° 275° (W) 02:11:22
SWISSCUBE 22 Jan 02:07:23 02:12:07 69° 258° (WSW) 02:16:53 437.505
Gurwin Techsat 1B 22 Jan 02:07:26 02:12:47 81° 104° (ESE) 02:18:06 435.225
TISAT 1 22 Jan 02:15:17 02:16:41 11° 269° (W) 02:18:05 437.305
KKS-1 22 Jan 02:15:34 02:17:27 13° 62° (ENE) 02:19:21 437.445
M-CUBED/EXP-1 PRIME 22 Jan 02:20:43 02:24:17 26° 65° (ENE) 02:27:40 437.505
YUBILEINY 22 Jan 02:21:10 02:29:15 42° 273° (W) 02:37:16 435.215
AIST 2 22 Jan 02:22:04 02:24:01 13° 39° (NE) 02:25:56 435.215
ITAMSAT 1 22 Jan 02:26:46 02:30:59 24° 95° (E) 02:35:11 435.822/435.867
Cosmos 2504 22 Jan 02:29:12 02:36:25 61° 268° (W) 02:43:25 435.465 / 435.565
CUBESAT XI-V 22 Jan 02:39:47 02:41:07 11° 60° (ENE) 02:42:27 437.345
PCSat 22 Jan 02:48:25 02:49:22 10° 325° (NW) 02:50:20 145.827
ISS 22 Jan 02:51:20 02:54:09 26° 24° (NNE) 02:56:58 145.825
AUBIESAT-1 22 Jan 02:55:14 02:59:20 49° 69° (ENE) 03:03:10 437.475
DANDE 22 Jan 03:02:00 03:04:59 19° 82° (E) 03:08:33 436.750
STARS 22 Jan 03:02:33 03:05:28 18° 65° (ENE) 03:08:23 437.465
Cosmos 2491 22 Jan 03:10:30 03:18:33 41° 287° (WNW) 03:26:40 435.465 / 435.565
ITUPSAT 1 22 Jan 03:11:34 03:14:53 19° 267° (W) 03:18:13 437.325
Oscar 19 22 Jan 03:20:57 03:23:15 13° 301° (WNW) 03:25:31 437.125/150
MOZHAYETS 4 22 Jan 03:22:53 03:27:13 42° 262° (W) 03:31:36
PHONESAT 2.4 22 Jan 03:24:39 03:26:53 77° 183° (S) 03:29:08 2401.200-2431.200
CUSAT 1 22 Jan 03:33:18 03:38:28 53° 286° (WNW) 03:45:09 437.405
AO-7 22 Jan 03:45:59 03:54:23 72° 106° (ESE) 04:02:40 29.400- 29.500
KKS-1 22 Jan 03:49:01 03:53:27 67° 258° (WSW) 03:57:53 437.445
Gurwin Techsat 1B 22 Jan 03:49:21 03:52:00 14° 301° (WNW) 03:54:40 435.225
M-CUBED/EXP-1 PRIME 22 Jan 03:54:53 03:58:38 28° 257° (WSW) 04:02:13 437.505
AIST 2 22 Jan 03:58:51 04:03:07 88° 50° (NE) 04:07:21 435.215
ITAMSAT 1 22 Jan 04:05:42 04:10:34 41° 291° (WNW) 04:15:25 435.822/435.867
CUBESAT XI-V 22 Jan 04:13:03 04:17:46 85° 257° (WSW) 04:22:31 437.345
RS-15 22 Jan 04:19:34 04:28:44 23° 4° (N) 04:37:53 29.354- 29.394
ISS 22 Jan 04:27:37 04:30:44 45° 221° (SW) 04:33:51 145.825
AUBIESAT-1 22 Jan 04:31:35 04:33:52 14° 261° (W) 04:36:06 437.475
STARS 22 Jan 04:37:18 04:41:28 43° 261° (W) 04:45:39 437.465
DANDE 22 Jan 04:43:26 04:47:10 34° 290° (WNW) 04:52:03 436.750
Cosmos 2499 22 Jan 04:45:55 04:48:59 13° 61° (ENE) 04:52:02 435.465 / 435.565
GOMX 1 22 Jan 04:48:22 04:51:21 18° 92° (E) 04:54:15 467.674
HORYU 2 22 Jan 04:50:12 04:53:42 22° 95° (E) 04:57:12 437.375
BRITE-PL 22 Jan 04:53:06 04:57:52 58° 100° (E) 05:02:15 437.365/2234.400
PHONESAT 2.4 22 Jan 04:58:39 05:00:40 29° 199° (SSW) 05:02:41 2401.200-2431.200
O/OREOS (USA 219) 22 Jan 05:01:24 05:04:40 20° 101° (E) 05:07:57 437.305
STRAND 1 22 Jan 05:08:57 05:11:28 14° 60° (ENE) 05:14:00 437.568
GONETS M04 22 Jan 05:12:26 05:18:55 22° 64° (ENE) 05:25:21
DOVE 4 22 Jan 05:18:17 05:20:23 13° 91° (E) 05:22:27 437.250
CUTE-I 22 Jan 05:30:00 05:34:10 23° 94° (E) 05:38:19 437.470
AO-7 22 Jan 05:39:43 05:46:26 28° 305° (NW) 05:53:07 29.400- 29.500
SO-50 22 Jan 05:57:57 05:59:20 11° 107° (ESE) 06:00:42 436.795
LilacSat-2 22 Jan 06:10:19 06:14:11 67° 100° (E) 06:18:02 437.200
Cubesat XI-IV 22 Jan 06:13:04 06:18:19 56° 100° (E) 06:23:34 437.490
NOAA 15 22 Jan 06:15:03 06:20:20 62° 102° (ESE) 06:25:34 137.62
GOMX 1 22 Jan 06:25:37 06:29:39 36° 289° (WNW) 06:33:30 467.674
HORYU 2 22 Jan 06:26:16 06:30:18 34° 291° (WNW) 06:34:19 437.375
CINEMA 3 22 Jan 06:31:45 06:34:56 20° 94° (E) 06:38:10 145.822/145.860
BRITE-PL 22 Jan 06:33:02 06:35:45 15° 299° (WNW) 06:38:21 437.365/2234.400
NOAA 18 22 Jan 06:33:17 06:38:31 45° 100° (E) 06:43:44 137.9125
RS-15 22 Jan 06:34:41 06:46:07 40° 37° (NE) 06:57:13 29.354- 29.394
Cosmos 2499 22 Jan 06:36:15 06:43:24 81° 82° (E) 06:50:29 435.465 / 435.565
O/OREOS (USA 219) 22 Jan 06:39:38 06:43:48 37° 298° (WNW) 06:47:58 437.305
STRAND 1 22 Jan 06:44:53 06:49:58 77° 257° (WSW) 06:55:06 437.568
DOVE 4 22 Jan 06:54:23 06:58:22 45° 287° (WNW) 07:02:20 437.250
HO-68 22 Jan 07:05:26 07:11:55 36° 97° (E) 07:18:21 435.675
GONETS M04 22 Jan 07:07:56 07:16:49 82° 265° (W) 07:25:39
CUTE-I 22 Jan 07:09:20 07:14:24 45° 290° (WNW) 07:19:28 437.470
CUBEBUG 2 22 Jan 07:13:44 07:16:10 14° 92° (E) 07:18:37 437.445
CUTE 1.7 + AOD 2 22 Jan 07:17:16 07:21:15 36° 97° (E) 07:25:13 437.475
SO-50 22 Jan 07:34:24 07:39:08 82° 303° (WNW) 07:43:49 436.795
UWE-3 22 Jan 07:37:32 07:40:24 17° 92° (E) 07:43:18 435.000/436.395/437.385
CANX-2 22 Jan 07:46:43 07:51:03 87° 279° (W) 07:55:20 2200.000
ZACube-1 22 Jan 07:52:03 07:54:29 14° 91° (E) 07:56:57 437.345
SEEDS 22 Jan 07:53:31 07:57:45 63° 101° (E) 08:01:57 437.485
Cubesat XI-IV 22 Jan 07:54:11 07:57:57 20° 297° (WNW) 08:01:44 437.490
COMPASS 1 22 Jan 07:55:06 07:59:07 42° 98° (E) 08:03:05 437.405
NOAA 15 22 Jan 07:56:04 07:59:36 18° 299° (WNW) 08:03:07 137.62
UNISAT 6 22 Jan 08:01:56 08:02:47 11° 61° (ENE) 08:03:40 437.425
AAUSAT CUBESAT 2 22 Jan 08:04:18 08:08:16 40° 98° (E) 08:12:11 437.432
PCSat 22 Jan 08:04:35 08:08:41 21° 45° (NE) 08:12:48 145.827
CINEMA 3 22 Jan 08:08:22 08:12:08 32° 289° (WNW) 08:15:59 145.822/145.860
TIGRISAT 22 Jan 08:13:21 08:15:23 13° 63° (ENE) 08:17:24 435.000
NOAA 18 22 Jan 08:14:33 08:18:53 25° 296° (WNW) 08:23:13 137.9125
Oscar 11 22 Jan 08:23:40 08:27:20 26° 95° (E) 08:30:58 145.826/435.025
ANTELSAT 22 Jan 08:27:53 08:30:59 20° 66° (ENE) 08:34:07 437.575/2403.000
Cosmos 2499 22 Jan 08:31:36 08:35:30 16° 281° (W) 08:39:22 435.465 / 435.565
PRISM 22 Jan 08:32:36 08:36:46 80° 75° (ENE) 08:40:57 437.425
JAS-2 22 Jan 08:34:04 08:36:04 12° 54° (NE) 08:38:07 435.910
RS-15 22 Jan 08:47:29 08:59:47 76° 243° (WSW) 09:11:34 29.354- 29.394
CUBEBUG 2 22 Jan 08:48:48 08:53:01 51° 287° (WNW) 08:57:23 437.445
HO-68 22 Jan 08:52:59 08:59:43 45° 295° (WNW) 09:06:23 435.675
CUTE 1.7 + AOD 2 22 Jan 08:53:42 08:56:49 20° 293° (WNW) 08:59:56 437.475
FUNcube-1 22 Jan 09:02:15 09:06:41 78° 102° (ESE) 09:11:10 145.935
DELFI C3 22 Jan 09:03:31 09:06:41 22° 94° (E) 09:09:49 145.870
GONETS M04 22 Jan 09:07:29 09:12:10 16° 284° (WNW) 09:16:49
UWE-3 22 Jan 09:12:51 09:17:02 44° 287° (WNW) 09:21:18 435.000/436.395/437.385
SO-50 22 Jan 09:17:52 09:20:19 14° 322° (NW) 09:22:45 436.795
HUMSAT D 22 Jan 09:19:44 09:22:56 20° 94° (E) 09:26:07 437.325/437.525
ZACube-1 22 Jan 09:26:44 09:31:02 52° 286° (WNW) 09:35:23 437.345
SEEDS 22 Jan 09:31:13 09:32:53 12° 297° (WNW) 09:34:34 437.485
COMPASS 1 22 Jan 09:31:36 09:34:19 17° 294° (WNW) 09:37:01 437.405
UNISAT 6 22 Jan 09:34:38 09:38:53 73° 258° (WSW) 09:43:10 437.425
AAUSAT CUBESAT 2 22 Jan 09:40:40 09:43:24 17° 294° (WNW) 09:46:08 437.432
NANOSAT C BR1 22 Jan 09:44:41 09:46:27 12° 63° (ENE) 09:48:12 145.865
PCSat 22 Jan 09:47:11 09:52:34 65° 245° (WSW) 09:57:55 145.827
TIGRISAT 22 Jan 09:47:25 09:51:35 56° 260° (W) 09:55:47 435.000
Oscar 11 22 Jan 09:59:41 10:03:24 28° 291° (WNW) 10:07:07 145.826/435.025
ANTELSAT 22 Jan 10:03:36 10:07:28 34° 263° (W) 10:11:24 437.575/2403.000
JAS-2 22 Jan 10:14:38 10:19:59 82° 73° (ENE) 10:25:57 435.910
QB50P1 22 Jan 10:35:44 10:39:45 48° 73° (ENE) 10:43:48 145.935-145.965
DELFI C3 22 Jan 10:38:05 10:41:28 27° 290° (WNW) 10:44:48 145.870
POLYITAN 1 22 Jan 10:40:32 10:44:37 55° 74° (ENE) 10:48:43 437.675
FUNcube-1 22 Jan 10:41:12 10:42:18 11° 298° (WNW) 10:43:23 145.935
QB50P2 22 Jan 10:41:48 10:45:56 62° 75° (ENE) 10:50:06 145.880/145.840
ESTCUBE 1 22 Jan 10:46:32 10:50:11 23° 94° (E) 10:53:48 437.505/2401.250
HUMSAT D 22 Jan 10:54:42 10:58:36 35° 289° (WNW) 11:02:31 437.325/437.525
POPSAT HIP 1 22 Jan 11:02:42 11:06:53 84° 259° (WSW) 11:11:05 437.405
RS-15 22 Jan 11:03:05 11:10:00 17° 264° (W) 11:16:47 29.354- 29.394
BY70-1 22 Jan 11:09:16 11:12:32 87° 283° (WNW) 11:15:32 436.1900
DUCHIFAT 1 22 Jan 11:10:44 11:14:54 79° 259° (WSW) 11:19:05 145.980
NANOSAT C BR1 22 Jan 11:17:32 11:21:39 59° 259° (W) 11:25:48 145.865
Oscar 19 22 Jan 11:19:29 11:22:33 16° 61° (ENE) 11:25:38 437.125/150
Cosmos 2491 22 Jan 11:24:24 11:30:48 22° 64° (ENE) 11:37:11 435.465 / 435.565
CUBEBUG 1 22 Jan 11:28:46 11:32:49 37° 98° (E) 11:36:49 437.445
BUGSAT 1 22 Jan 11:36:24 11:40:26 71° 75° (ENE) 11:44:27 437.445
AISAT 22 Jan 11:50:59 11:55:10 42° 99° (E) 11:59:19 437.250
Gurwin Techsat 1B 22 Jan 11:51:00 11:54:22 17° 61° (ENE) 11:57:44 435.225
50 SAT 22 Jan 11:55:04 11:58:16 31° 97° (E) 12:01:25 437.505
JAS-2 22 Jan 12:04:04 12:06:02 12° 275° (W) 12:08:04 435.910
QB50P1 22 Jan 12:13:37 12:15:47 14° 269° (W) 12:17:58 145.935-145.965
